{"data":{"norad_id":67058,"intl_designator":"2025-294AE","name":"STARLINK-35767","alt_names":[],"object_type":"PAYLOAD","status":"ACTIVE","operator":null,"country":"US","launch_date":"2025-12-11","launch_site_code":"AFETR","launch_vehicle":null,"mission":null,"orbit_class":"UNKNOWN","rcs_meters":null,"size_class":null,"mass_kg":null,"dimensions":null,"purposes":["comms"],"wikipedia_slug":null,"has_3d_model":false,"image_url":null,"decayed_at":null,"tle_current":{"epoch":"2026-09-20T09:28:44.395392Z","epoch_age_seconds":90782,"freshness":"FRESH","line1":"1 67058U 25294AE  26263.39495828  .00010689  00000+0  39705-3 0  9995","line2":"2 67058  43.0011  18.7539 0003261 287.0971  72.9524 15.27605985 44573","mean_motion":15.27605985,"eccentricity":0.0003261,"inclination_deg":43.0011,"raan_deg":18.7539,"arg_perigee_deg":287.0971,"mean_anomaly_deg":72.9524,"bstar":0.00039705,"rev_number":4457,"period_min":94.265145210203,"perigee_km":480.73388129161,"apogee_km":485.2086961175,"semimajor_km":6861.1082887046,"source":"CELESTRAK","updated_at":"2026-09-21T09:00:36.097037Z"}}}